This demonstration page uses our WeatherBlox Daily Observations layout. Learn more.

Left ArrowRight Arrow

41.12389, -100.76542

Hourly Observations for March 6, 2018

Temp ( °F °C ) Dew Point ( °F °C ) Humidity (%) Winds ( mph kmh ) Pressure ( in mb ) Visibility ( mi km ) Precip ( " mm )
12:53 am 00:53 Clear 33 0.6 17 -8.3 52 52 WNW 28 44 29.95 1014 10 16 0.00 0.00
1:53 am 01:53 Clear 33 0.6 16 -8.9 49 49 WNW 26 43 29.95 1014 10 16 0.00 0.00
2:53 am 02:53 Clear 34 1.1 14 -10 44 44 WNW 28 44 29.95 1014 10 16 0.00 0.00
3:53 am 03:53 Mostly Clear 34 1.1 14 -10 44 44 WNW 28 44 29.96 1014 10 16 0.00 0.00
4:53 am 04:53 Clear 34 1.1 12 -11.1 40 40 NW 29 46 29.97 1015 10 16 0.00 0.00
5:53 am 05:53 Clear 32 0 13 -10.6 45 45 WNW 26 43 30.00 1016 10 16 0.00 0.00
6:53 am 06:53 Clear 31 -0.6 13 -10.6 47 47 NW 26 43 30.03 1017 10 16 0.00 0.00
7:53 am 07:53 Sunny 31 -0.6 11 -11.7 43 43 NW 24 39 30.06 1018 10 16 0.00 0.00
8:53 am 08:53 Sunny 33 0.6 9 -12.8 36 36 NNW 39 63 30.08 1019 10 16 0.00 0.00
9:53 am 09:53 Mostly Sunny 34 1.1 11 -11.7 38 38 NW 39 63 30.12 1020 10 16 0.00 0.00
10:53 am 10:53 Cloudy 35 1.7 14 -10 42 42 NNW 31 50 30.16 1021 10 16 0.00 0.00
11:53 am 11:53 Cloudy 36 2.2 16 -8.9 44 44 NNW 33 54 30.18 1022 10 16 0.00 0.00
12:53 pm 12:53 Cloudy 36 2.2 16 -8.9 44 44 NNW 28 44 30.21 1023 10 16 0.00 0.00
1:53 pm 13:53 Cloudy 37 2.8 17 -8.3 44 44 NNW 32 52 30.21 1023 10 16 0.00 0.00
2:53 pm 14:53 Cloudy 37 2.8 16 -8.9 42 42 NNW 30 48 30.22 1023 10 16 0.00 0.00
3:53 pm 15:53 Partly Cloudy 38 3.3 16 -8.9 41 41 NNW 31 50 30.24 1024 10 16 0.00 0.00
4:53 pm 16:53 Sunny 38 3.3 17 -8.3 43 43 NNW 25 41 30.25 1025 10 16 0.00 0.00
5:53 pm 17:53 Sunny 35 1.7 16 -8.9 46 46 NNW 23 37 30.29 1026 10 16 0.00 0.00
6:53 pm 18:53 Clear 32 0 17 -8.3 54 54 NNW 14 22 30.31 1026 10 16 0.00 0.00
7:53 pm 19:53 Clear 31 -0.6 13 -10.6 47 47 NNW 14 22 30.32 1027 10 16 0.00 0.00
8:53 pm 20:53 Clear 30 -1.1 14 -10 51 51 NW 9 15 30.33 1027 10 16 0.00 0.00
9:53 pm 21:53 Clear 27 -2.8 12 -11.1 53 53 NNW 8 13 30.32 1027 10 16 0.00 0.00
10:53 pm 22:53 Clear 26 -3.3 12 -11.1 55 55 N 13 20 30.29 1026 10 16 0.00 0.00
11:53 pm 23:53 Clear 22 -5.6 12 -11.1 66 66 NW 6 9 30.33 1027 10 16 0.00 0.00

Powered by AerisWeather